Flag for Greece

Past Weather in 40°37'30"N, 22°58'22"E, Greece — Yesterday and Last 2 Weeks

Currently: 54 °F. Passing clouds. (Weather station: Thessaloniki Airport, Greece). See more current weather

Past Weather in 40°37'30"N, 22°58'22"E — Graph

°F

40°37'30"N, 22°58'22"E Temperature Yesterday

Maximum temperature yesterday: 68 °F (at 2:20 pm)
Minimum temperature yesterday: 46 °F (at 6:50 am)
Average temperature yesterday: 56 °F

High & Low Weather Summary for the Past Weeks

 TemperatureHumidityPressure
High70 °F (Feb 24, 12:50 pm)100% (Feb 17, 5:50 am)30.42 "Hg (Feb 17, 5:50 am)
Low36 °F (Feb 16, 5:20 am)40% (Feb 24, 12:50 pm)29.77 "Hg (Feb 26, 5:20 am)
Average52 °F77%30.12 "Hg
* Reported Feb 13 7:20 pm — Feb 28 7:50 pm, 40°37'30"N, 22°58'22"E. Weather by CustomWeather, © 2024

Note: Actual official high and low records may vary slightly from our data, if they occured in-between our weather recording intervals... More about our weather records

40°37'30"N, 22°58'22"E Weather History for the Previous 24 Hours

Scroll right to see more
 ConditionsComfort  
Time TempWeatherWind HumidityBarometerVisibility
7:50 pm
Wed, Feb 28
55 °FPassing clouds.2 mph100%30.15 "HgN/A
7:20 pm55 °FPassing clouds.5 mph100%30.15 "HgN/A
6:50 pm57 °FPassing clouds.3 mph100%30.15 "HgN/A
6:20 pm55 °FPassing clouds.3 mph100%30.15 "HgN/A
5:50 pm57 °FPassing clouds.6 mph100%30.15 "HgN/A
5:20 pm57 °FScattered clouds.5 mph100%30.15 "HgN/A
4:50 pm57 °FScattered clouds.7 mph100%30.15 "HgN/A
4:20 pm59 °FPartly sunny.7 mph88%30.15 "HgN/A
3:50 pm59 °FPartly sunny.6 mph88%30.15 "HgN/A
3:20 pm59 °FPartly sunny.6 mph82%30.15 "HgN/A
2:50 pm59 °FPartly sunny.7 mph88%30.15 "HgN/A
2:20 pm59 °FScattered clouds.7 mph88%30.15 "HgN/A
1:50 pm59 °FScattered clouds.10 mph88%30.15 "HgN/A
1:20 pm57 °FPassing clouds.8 mph88%30.15 "HgN/A
12:50 pm57 °FPassing clouds.9 mph88%30.15 "HgN/A
12:20 pm57 °FPassing clouds.7 mph88%30.18 "HgN/A
11:50 am57 °FPassing clouds.5 mph82%30.18 "HgN/A
11:20 am55 °FScattered clouds.5 mph88%30.18 "HgN/A
10:50 am55 °FPartly sunny.3 mph88%30.18 "HgN/A
10:20 am55 °FPartly sunny.5 mph88%30.18 "HgN/A
9:50 am55 °FPartly sunny.5 mph88%30.18 "HgN/A
9:20 am54 °FPartly sunny.5 mph94%30.18 "HgN/A
8:50 am54 °FPartly sunny.5 mph94%30.18 "HgN/A
8:20 am54 °FPartly sunny.6 mph94%30.15 "HgN/A
7:50 am55 °FPartly sunny.3 mph88%30.15 "HgN/A
7:20 am54 °FPartly sunny.No wind88%30.15 "HgN/A
6:50 am52 °FPassing clouds.2 mph88%30.12 "HgN/A
6:20 am52 °FPassing clouds.5 mph88%30.12 "HgN/A
5:50 am52 °FPassing clouds.8 mph88%30.12 "HgN/A
5:20 am50 °FPassing clouds.3 mph94%30.12 "HgN/A
4:50 am50 °FPassing clouds.3 mph94%30.12 "HgN/A
4:20 am50 °FPassing clouds.6 mph94%30.12 "HgN/A
3:50 am50 °FPassing clouds.6 mph94%30.12 "HgN/A
3:20 am50 °FPassing clouds.5 mph94%30.12 "HgN/A
2:50 am50 °FPassing clouds.5 mph94%30.12 "HgN/A
1:50 am52 °FPassing clouds.3 mph94%30.12 "HgN/A
1:20 am50 °FPassing clouds.6 mph100%30.12 "HgN/A
12:50 am50 °FPassing clouds.6 mph100%30.12 "HgN/A
12:20 am50 °FPassing clouds.3 mph100%30.12 "HgN/A
11:50 pm
Tue, Feb 27
50 °FPassing clouds.3 mph100%30.12 "HgN/A
11:20 pm52 °FPassing clouds.3 mph100%30.12 "HgN/A
10:50 pm52 °FPassing clouds.3 mph100%30.12 "HgN/A
9:50 pm55 °FPassing clouds.3 mph88%30.09 "HgN/A
9:20 pm55 °FPassing clouds.3 mph94%30.09 "HgN/A
Weather by CustomWeather, © 2024

See weather overview